Location: Ahstedt
(52.2048°N, 10.1060°E)
Time: 18:55:52
(UTC+00:00)

Cosmos 2082 Rocket - Pass Details

Date: 18 April 2026
Orbit: 831 x 853 km, 71.0° (Epoch: 13 May)

Event Time Altitude Azimuth Distance (km) Brightness Sun altitude
Exits shadow 01:58:14 32° 229° (SW) 1,430 2.8 -18.3°
Maximum altitude 02:00:56 69° 304° (NW) 916 2.3 -18.1°
Drops below altitude 10° 02:06:40 10° 28° (NNE) 2,495 5.8 -17.5°
Sets 02:09:09 0° 31° (NNE) 3,434 6.9 -17.2°
